Theta_e
337 336 335 336 337 338 339 340 340 339 338 337 336 335 335 335 335 335 334 333 327 325 323 317 313 312 318 328 333 332 331 332
340 338 335 335 337 338 338 339 340 339 339 338 337 336 336 335 335 335 334 332 328 324 320 313 308 308 312 320 330 331 330 329
342 339 336 335 335 336 337 339 340 340 340 340 338 337 336 335 335 335 334 333 330 325 318 309 306 305 307 316 324 329 329 328
343 341 338 335 335 336 338 340 341 341 342 341 339 338 337 336 336 335 334 330 331 327 318 307 305 304 307 317 325 328 327 327
343 341 340 338 336 336 339 340 341 342 341 341 339 338 337 336 336 334 332 329 330 328 320 307 304 303 307 320 326 326 325 323
343 342 341 340 339 338 340 342 341 340 340 340 339 338 337 337 336 334 332 330 330 329 323 307 304 304 305 318 325 325 323 321
343 343 342 341 341 341 343 343 341 339 339 340 339 338 337 336 335 334 332 331 331 330 326 310 304 304 307 313 322 322 321 319
344 343 342 342 341 342 343 343 341 338 337 337 337 337 336 336 334 334 333 331 331 331 328 317 304 305 312 317 320 321 320 318
343 344 343 343 341 340 339 337 339 339 338 338 336 336 334 333 333 333 332 331 331 330 327 321 306 307 310 317 320 320 318 318
342 343 343 343 342 340 339 338 337 337 336 336 335 335 334 333 333 333 333 332 331 331 328 323 309 307 311 315 319 318 317 317
342 342 343 343 342 340 340 339 338 338 338 337 337 336 335 335 334 334 333 332 332 331 328 325 316 309 312 314 318 317 317 316
340 340 340 340 340 340 341 341 341 340 340 340 338 338 336 334 335 334 333 330 329 327 325 324 320 310 312 314 316 316 316 316
338 340 340 340 334 329 328 333 335 336 337 337 337 336 333 332 332 332 331 331 329 329 327 318 314 310 313 311 311 312 313 314
316 317 317 317 316 316 317 318 326 325 326 327 331 330 328 328 330 331 331 327 325 326 322 318 315 311 312 311 308 308 310 311
315 316 315 315 314 313 313 313 313 313 312 312 312 313 313 310 309 311 314 325 325 324 321 319 315 312 312 313 307 314 307 307
313 314 315 315 314 313 313 313 313 313 313 313 314 313 312 309 308 307 307 309 316 321 320 319 317 314 311 312 312 309 311 304
313 312 312 311 311 311 311 311 311 312 313 314 314 313 311 310 308 308 308 310 311 317 319 319 316 317 313 312 311 306 306 305
310 308 309 309 310 310 310 308 307 306 305 304 304 304 305 306 306 308 309 309 310 310 313 317 316 315 315 313 312 309 306 306
309 308 308 305 305 304 303 302 302 302 303 303 304 305 305 303 304 305 309 310 310 309 311 312 314 315 314 314 313 312 311 308
306 304 303 303 303 301 301 301 302 302 302 302 302 302 303 304 307 308 310 310 309 308 309 310 311 314 314 314 313 312 310 308
Wind_Speed
22 21 23 23 23 23 24 23 23 22 21 20 18 17 17 16 14 12 11 9 6 8 10 10 8 10 11 13 16 17 18 18
22 21 23 24 23 23 23 24 23 23 22 21 20 19 18 17 17 15 13 10 8 7 9 10 9 8 12 14 15 17 20 19
24 24 24 25 24 23 22 23 23 22 21 21 20 20 19 18 18 17 15 12 10 8 8 9 10 9 11 13 17 20 19 17
27 26 25 25 24 23 22 22 23 22 22 22 21 19 19 19 19 18 16 14 12 11 11 12 13 13 13 17 20 21 20 19
30 28 27 25 25 25 25 25 24 24 23 23 22 22 23 23 21 20 17 15 16 15 14 14 16 17 17 21 24 24 22 19
29 29 28 26 25 25 25 25 25 25 25 24 24 24 23 24 23 22 20 19 18 17 15 14 16 19 21 24 26 26 25 22
29 29 28 27 25 21 22 24 25 26 26 25 24 25 25 24 23 22 21 21 21 20 18 17 17 19 21 26 29 29 26 24
28 28 28 26 23 18 18 20 23 25 26 26 25 24 25 25 25 25 24 24 24 23 22 20 21 21 22 25 30 32 30 27
31 29 28 24 22 18 17 20 22 23 26 26 27 27 28 29 30 31 31 29 29 27 26 24 23 24 23 27 32 33 31 31
25 28 28 24 21 19 18 18 21 23 26 27 27 29 32 33 35 37 37 35 33 32 31 28 26 28 28 29 32 33 32 31
23 23 25 23 20 17 16 17 19 20 23 26 28 30 33 36 39 41 40 39 37 38 37 35 33 31 29 32 35 36 35 33
19 17 17 16 10 8 9 11 14 17 20 23 22 26 28 33 38 41 40 38 39 38 39 41 40 41 28 26 31 37 38 37
24 22 19 17 15 9 3 1 4 6 11 17 21 23 23 26 28 30 39 42 45 45 43 30 25 29 23 18 22 28 34 36
23 21 19 16 14 11 8 5 0 4 6 10 13 14 16 17 22 26 27 37 36 41 39 31 29 32 19 13 4 8 26 34
19 17 16 15 12 10 6 2 5 6 9 7 9 12 14 17 20 21 23 25 34 40 39 37 28 36 42 19 3 8 7 22
17 15 13 11 7 6 6 6 7 10 10 12 14 16 19 21 22 23 25 27 24 28 32 39 39 30 29 38 22 16 7 3
18 16 13 9 6 6 6 8 10 12 14 16 19 21 25 27 28 28 27 26 27 25 28 32 34 35 37 40 38 19 13 2
15 11 9 6 6 9 11 14 17 21 26 31 32 35 37 37 32 28 29 27 28 28 28 29 35 34 31 35 35 22 14 7
10 8 10 11 10 12 16 21 25 28 30 30 32 31 34 43 43 37 34 28 28 31 32 30 32 36 39 34 35 36 29 25
12 8 7 9 14 19 21 23 25 25 27 33 35 34 36 37 40 40 36 32 32 33 33 35 34 36 43 42 39 41 37 30
Wind_Direction
192 199 199 196 192 192 192 193 195 195 196 196 193 191 193 188 189 192 206 209 190 175 169 167 186 159 166 170 169 164 160 153
190 194 197 197 195 197 198 195 198 200 199 201 201 199 199 196 196 202 218 226 212 193 181 175 194 185 178 181 179 170 167 162
193 194 196 198 198 200 204 199 202 204 204 205 203 203 205 204 205 211 219 226 219 213 195 186 201 219 189 195 191 179 176 170
199 196 196 198 201 200 203 201 203 204 206 206 206 207 209 211 212 222 236 223 224 223 207 196 202 212 193 191 191 183 178 169
201 201 198 198 202 203 204 204 204 206 207 207 207 210 213 215 216 222 236 227 227 228 216 205 205 206 195 190 187 186 182 179
204 205 201 203 206 208 208 206 207 209 210 211 211 212 215 216 220 226 233 242 240 239 231 219 212 207 199 193 193 189 187 189
208 206 206 207 206 211 211 210 213 215 214 215 216 218 221 226 230 230 236 245 247 246 239 229 219 211 202 200 196 193 191 190
212 207 208 212 212 212 214 215 221 223 224 223 223 224 235 234 238 239 245 247 253 253 247 233 218 212 206 203 202 198 193 190
213 206 207 209 213 220 224 227 231 233 231 231 230 232 237 241 242 244 249 253 253 251 248 239 223 212 211 209 204 200 194 192
205 203 202 204 210 218 225 230 234 235 237 239 240 241 241 242 241 242 245 244 244 244 241 238 232 221 217 212 208 201 196 194
182 192 195 199 208 218 229 237 244 247 249 250 252 248 246 245 247 250 247 244 240 242 238 231 230 222 225 216 208 204 199 195
146 160 173 183 191 219 243 253 262 261 263 264 274 270 263 252 249 251 249 246 244 238 234 238 228 218 215 213 213 207 201 198
115 119 123 131 121 120 125 316 314 286 276 277 276 276 284 281 268 255 245 244 244 243 240 227 220 212 180 192 204 209 207 201
98 101 107 107 104 97 88 80 305 316 305 302 296 296 300 301 292 273 257 242 238 235 229 220 214 196 195 189 160 218 208 211
109 108 103 99 88 81 77 44 343 335 332 321 317 316 316 316 315 314 303 281 242 233 229 217 214 203 198 173 159 219 169 209
113 112 110 98 73 48 13 340 315 313 302 302 303 303 303 302 303 302 302 298 290 273 245 228 219 209 215 215 217 165 204 136
106 103 94 82 60 29 357 335 328 315 303 295 292 297 297 295 300 297 299 295 293 286 277 254 235 230 216 210 210 203 179 192
105 98 82 59 31 17 13 6 352 340 332 323 315 311 310 305 297 284 285 283 284 285 284 271 253 242 241 227 222 210 187 156
106 92 67 44 23 6 357 346 337 333 328 323 316 309 302 298 297 291 280 273 276 279 274 266 262 243 236 235 229 229 230 221
111 91 55 21 5 352 339 330 327 324 327 324 310 298 292 288 288 282 272 272 280 278 270 266 262 254 241 231 225 221 212 203